Terminal Aerodrome Forecast
Issued by NWS Cleveland, OH

Home | Current Version | Previous Version | Graphics & Text | Print | Product List | Glossary On
Versions: 1 2 3 4 5 6 7 8 9 10 11 12 13 14 15 16 17 18 19 20 21 22 23 24 25 26 27 28 29
000
FTUS41 KCLE 220300 AAC
TAFMFD
TAF AMD
KMFD 220350Z 2204/2224 34010KT 4SM BR OVC003
     FM221300 35010KT P6SM BKN008 OVC012
     FM221600 35010KT P6SM OVC015
     FM221900 35008KT P6SM OVC025
     FM222100 35008KT P6SM BKN035=

USA.gov is the U.S. government's official web portal to all federal, state and local government web resources and services.